Location: Andrest
(43.3200°N, 0.0641°E)
Time: 13:25:30
(UTC+00:00)

SL-8 Rocket - Visible Passes

Search period start: 20 April 2021 00:00
Search period end: 30 April 2021 00:00
Orbit: 957 x 990 km, 82.9° (Epoch: 20 April)

Date Brightness Start Highest point End Pass type
(mag) Time Alt. Az. Time Alt. Az. Time Alt. Az.
20 Apr 4.2 01:43:21 10° NNW 01:48:53 60° WNW 01:48:53 60° WNW visible
21 Apr 5.0 00:23:13 10° N 00:28:55 37° ENE 00:28:55 37° ENE visible
21 Apr 4.8 02:08:38 10° NNW 02:13:33 35° WNW 02:13:33 35° WNW visible
22 Apr 4.3 00:47:50 10° N 00:53:36 62° NE 00:53:36 62° NE visible
22 Apr 5.5 02:34:23 10° NW 02:38:13 20° WNW 02:38:13 20° WNW visible
22 Apr 5.9 23:28:46 10° NNE 23:33:00 18° ENE 23:33:40 18° ENE visible
23 Apr 4.1 01:12:43 10° N 01:18:17 67° NW 01:18:17 67° NW visible
23 Apr 6.0 03:01:46 10° WNW 03:02:54 11° WNW 03:02:54 11° WNW visible
23 Apr 5.2 23:52:48 10° N 23:58:21 31° ENE 23:58:22 31° ENE visible
24 Apr 4.7 01:37:55 10° NNW 01:42:59 41° WNW 01:42:59 41° WNW visible
25 Apr 4.5 00:17:20 10° N 00:23:04 53° ENE 00:23:04 53° ENE visible
25 Apr 5.3 02:03:29 10° NNW 02:07:42 24° WNW 02:07:42 24° WNW visible
25 Apr 6.0 22:58:40 10° NNE 23:02:15 15° ENE 23:03:10 15° ENE visible
26 Apr 4.1 00:42:09 10° N 00:47:47 73° NNW 00:47:47 73° NNW visible
26 Apr 5.9 02:29:58 10° NW 02:32:25 13° WNW 02:32:25 13° WNW visible
26 Apr 5.4 23:22:27 10° NNE 23:27:41 26° ENE 23:27:54 26° ENE visible
27 Apr 4.5 01:07:14 10° NNW 01:12:31 48° WNW 01:12:31 48° WNW visible
27 Apr 4.7 23:46:51 10° N 23:52:38 45° ENE 23:52:38 45° ENE visible
28 Apr 5.2 01:32:40 10° NNW 01:37:16 29° WNW 01:37:16 29° WNW visible
28 Apr 6.1 22:28:46 10° NE 22:31:29 13° ENE 22:32:46 12° ENE visible
29 Apr 4.1 00:11:35 10° N 00:17:23 72° NNE 00:17:23 72° NNE visible
29 Apr 5.8 01:58:43 10° NW 02:02:01 16° WNW 02:02:01 16° WNW visible
29 Apr 5.6 22:52:08 10° NNE 22:56:59 23° ENE 22:57:31 22° ENE visible
